Location: Unspecified
(0.0000°N, 0.0000°E)
Time: 04:53:32
(UTC+00:00)

OTV 5 (USA 277) - Visible Passes

Search period start: 23 May 2019 00:00
Search period end: 02 June 2019 00:00
Orbit: 310 x 325 km, 54.5° (Epoch: 08 May)

Date Brightness Start Highest point End Pass type
(mag) Time Alt. Az. Time Alt. Az. Time Alt. Az.
25 May ? 05:03:25 10° S 05:05:47 25° ESE 05:08:07 10° ENE visible
26 May ? 05:18:00 12° SW 05:20:26 49° WNW 05:23:06 10° NNE visible
27 May ? 04:02:06 11° E 04:02:06 11° E 04:02:16 10° E visible
28 May ? 04:17:04 24° NE 04:17:04 24° NE 04:18:22 10° NE visible
29 May ? 04:31:58 13° NNW 04:31:58 13° NNW 04:32:29 10° N visible
